Showing default

GEMS2-AMETHYST, 68505

Orbit data source: Space-Track

GEMS2-AMETHYST, 68505 is an American payload satellite in SSO that was launched on Mon, 30 Mar 2026 UTC via an FALCON 9 launch vehicle from the Air Force Western Test Range (AFWTR). Payload-class satellites include a variety of spacecraft equipped with specific instruments for various scientific and technological missions. These include communications satellites like Starlink; space stations such as the ISS; scientific satellites like the Hubble; Earth observation satellites from companies like Planet Labs, Umbra, and HawkEye 360; GPS; miniature CubeSats for education and research; and military/defense satellites.

Loading next visibility...
Identifier
68505, 2026-067CT
Orbit
SSO
Country
Flag of USUS
Related business
Manufacturer
OMS
Mission
Operational Commercial Weather
Bus & Motor
CUBESAT 6U, Unknown motor
Mass
10 kg wet, ~10 kg dry
Launch date (UTC)
2026-03-30 (3 months ago)
Launch vehicle
FALCON 9
Launch site
Air Force Western Test Range (AFWTR)
Object type
Payload
Rocket body
Debris
Shape & HBR
Box, 2.0 m
Radar Cross Section
0.080 m², Medium (>0.1 m² and < 1m²)

Expand to show TLE details & history
Last TLE update: 12 hours ago

TLE from 12 hours ago
0 GEMS2-AMETHYST
1 68505U 26067CT  26193.86265135  .00001828  00000-0  18890-3 0  9990
2 68505  97.7614 151.6004 0004606 338.7770  21.3257 14.91333614 15548
Epoch: 2026-07-12T20:42Z
TLE epoch observation values (Epoch: 2026-07-12T20:42:13.076Z)
Latitude
-0.00001°
Longitude
-89.70951°
Altitude
593.825 km
Speed
7.565 km/s
True Right ascension
10h 06m 24s
True Declination
0° 00' 00"
Sunlit
Object was in daylight at epoch
Visualization orbit readout
Latitude
Unknown
Longitude
Unknown
Altitude
Unknown
Speed
Unknown
Apparent Right ascension
Unknown
Apparent Declination
Unknown
Sunlit
N/A
Visualization observer readout
Local Sidereal Time
21:27:21
Azimuth
Unknown
Elevation
Unknown
Doppler factor
Unknown
Orbital elements
Apogee altitude
594.006 km
Perigee altitude
587.586 km
Semi-major axis
6,968.933 km
Eccentricity
0.00046
Inclination
97.7614°
RAAN
151.6004°
Arg. of periapsis
338.777°
True anomaly
21.34491°
Mean anomaly
21.3257°
Eccentric anomaly
21.3353°
Mean motion
3.73073 °/min
Orbital period
96.5 mins
BSTAR
0.0001889
Loading maneuver chart data...
Computing Atmospheric mass density...
Loading historical data...
Loading historical data...
Loading historical data...
Loading historical data...
Loading historical data...
Loading historical data...
Loading historical data...

Documentation

Showing up to 5 results
|